Regional Weather Roundup
Issued by NWS Cleveland, OH

Home | Current Version | Previous Version | Text Only | Print | Product List | Glossary On
Versions: 1 2 3 4 5 6 7 8 9 10 11 12 13 14 15 16 17 18 19 20 21 22 23 24 25 26 27 28 29 30 31 32 33 34 35 36 37 38 39 40 41 42 43 44 45 46 47 48 49 50
000
ASUS41 KCLE 260412
RWRCLE
OHIO REGIONAL WEATHER ROUNDUP
NATIONAL WEATHER SERVICE WILMINGTON, OH
1200 AM EDT TUE JUL 26 2016

NOTE: "FAIR" INDICATES FEW OR NO CLOUDS BELOW 12,000 FEET WITH NO
SIGNIFICANT WEATHER AND/OR OBSTRUCTIONS TO VISIBILITY.

OHZ001>008-015>018-024>027-034-035-043-044-260500-
   NORTHWEST OHIO

CITY           SKY/WX    TMP DP  RH WIND       PRES   REMARKS
DEFIANCE       FAIR      74  64  71 NW6       30.00S
FINDLAY        FAIR      74  66  76 CALM      29.99R
TOLEDO EXPRESS FAIR      75  67  76 W7        29.99S
TOLEDO EXEC    FAIR      76  68  76 NW8       29.99R
LIMA           FAIR      74  69  85 W5        30.01S
$$

OHZ009>014-019>023-028>033-038-089-260500-
   NORTHEAST OHIO

CITY           SKY/WX    TMP DP  RH WIND       PRES   REMARKS
CLE-HOPKINS    MOCLDY    76  67  73 W5        29.98S
CLE-LAKEFRONT  FAIR      80  73  79 W10       29.95R
CUY CO. ARPT   NOT AVBL
LORAIN-ELYRIA  FAIR      73  67  81 W3        29.98S
ASHTABULA      FAIR      70  68  93 CALM      29.96F
AKRON-CANTON   FAIR      77  67  71 W3        29.99S
WOOSTER        FAIR      70  66  87 CALM      30.00S
MANSFIELD      MOCLDY    73  69  87 SW5       30.01S
YOUNGSTOWN     MOCLDY    69  66  90 CALM      29.98S
$$

OHZ042-051>053-060>062-070>072-077>081-260500-
  SOUTHWEST OHIO

CITY           SKY/WX    TMP DP  RH WIND       PRES   REMARKS
CINC-COVINGTON MOCLDY    77  75  93 CALM      30.01S
CINC-LUNKEN    FAIR      77  76  96 CALM      29.99F
HAMILTON       FAIR      76  72  87 CALM      30.00S
DAYTON         MOCLDY    77  71  82 N6        30.02S
WRIGHT-PAT AFB MOCLDY    80  72  75 NW6       30.00S
DAYTON GENERAL FAIR      81  69  67 NW3       30.00F
WILMINGTON     FAIR      75  73  93 CALM      30.01S
$$

OHZ036-037-039>041-045>050-054>059-063>069-073>076-082>088-260500-
  CENTRAL AND SOUTHEAST OHIO

CITY           SKY/WX    TMP DP  RH WIND       PRES   REMARKS
COLUMBUS       MOCLDY    80  68  66 NW5       29.98S
OSU AIRPORT    FAIR      79  70  74 NW6       29.99S
BOLTON FIELD   FAIR      76  70  80 W5        30.01R
RICKENBACK AFB FAIR      75  71  89 SW5       29.98S
NEWARK         FAIR      71  69  93 CALM      29.99R
MARION         FAIR      76  69  79 NW6       30.01R
LANCASTER      FAIR      75  71  87 S3        30.00R
ZANESVILLE     FAIR      77  66  68 S7        29.99R
NEW PHILLY     FAIR      76  66  71 CALM      29.99R
$$




USA.gov is the U.S. government's official web portal to all federal, state and local government web resources and services.